Noervenich, Germany

2:55 PM CEST on August 17, 2017 (GMT +0200)
Norvenich Air Base

Weather History for ETNN - November, 2012

Change the Weather History Date:

Saturday, November 10, 2012

  Actual Average Record
Temperature  
Mean Temperature 52 °F -  
Max Temperature 57 °F 46 °F 61 °F (2015)
Min Temperature 46 °F 35 °F 24 °F (2001)
Degree Days  
Heating Degree Days 14    
Growing Degree Days 2 (Base 50)    
Moisture  
Dew Point 47 °F    
Average Humidity 88    
Maximum Humidity 100    
Minimum Humidity 71    
Precipitation  
Precipitation 0.00 in - - ()
Sea Level Pressure  
Sea Level Pressure 29.58 in    
Wind  
Wind Speed 5 mph ()    
Max Wind Speed 8 mph    
Max Gust Speed -    
Visibility 6.0 miles    
Events Rain    
Averages and records for this station are not official NWS values.
T = Trace of Precipitation, MM = Missing Value Source: Averaged Metar Reports

Daily Weather History Graph

Daily Weather History Graph

Search for Another Location

Airport or City:

Trip Planner

Search our weather history database for the weather conditions in past years. The results will help you decide how hot, cold, wet, or windy it might be!

Date:

Astronomy

Nov. 10, 2012 Rise Set
Actual Time 7:41 AM CET 4:52 PM CET
Civil Twilight 7:05 AM CET 5:28 PM CET
Nautical Twilight 6:25 AM CET 6:08 PM CET
Astronomical Twilight 5:47 AM CET 6:46 PM CET
Moon 3:04 AM CET (11/10) 2:50 PM CET (11/10)
Length of Visible Light 10h 23m
Length of Day
9h 11m
Waning Crescent, 16% of the Moon is Illuminated
Nov 10
Waning Crescent
Nov 13
New
Nov 20
First Quarter
Nov 28
Full
Dec 6
Last Quarter

Hourly Weather History & Observations

Time (CET) Temp. Windchill Dew Point Humidity Pressure Visibility Wind Dir Wind Speed Gust Speed Precip Events Conditions
12:20 AM 46.4 °F 43.5 °F 37.4 °F 71% 29.74 in 6.2 mi SE 5.8 mph - N/A   Mostly Cloudy
1:20 AM 46.4 °F 44.3 °F 39.2 °F 76% 29.74 in 6.2 mi ESE 4.6 mph - N/A Rain Light Rain
2:20 AM 46.4 °F 43.5 °F 42.8 °F 87% 29.71 in 6.2 mi SE 5.8 mph - N/A Rain Light Rain
3:20 AM 46.4 °F 43.5 °F 44.6 °F 93% 29.68 in 3.7 mi SE 5.8 mph - N/A Rain Light Rain
4:20 AM 46.4 °F 44.3 °F 44.6 °F 93% 29.68 in 6.2 mi East 4.6 mph - N/A Rain Light Rain
5:20 AM 46.4 °F 42.9 °F 44.6 °F 93% 29.65 in 6.2 mi ESE 6.9 mph - N/A   Mostly Cloudy
6:20 AM 46.4 °F 44.3 °F 44.6 °F 93% 29.62 in 6.2 mi SE 4.6 mph - N/A   Mostly Cloudy
7:20 AM 48.2 °F - 46.4 °F 93% 29.62 in 6.2 mi SSE 5.8 mph - N/A   Mostly Cloudy
8:20 AM 48.2 °F - 44.6 °F 87% 29.62 in 6.2 mi SE 6.9 mph - N/A   Mostly Cloudy
9:20 AM 50.0 °F - 46.4 °F 87% 29.59 in 6.2 mi SSE 8.1 mph - N/A   Mostly Cloudy
10:20 AM 51.8 °F - 46.4 °F 82% 29.59 in 6.2 mi SE 6.9 mph - N/A   Mostly Cloudy
11:20 AM 53.6 °F - 46.4 °F 77% 29.56 in 6.2 mi South 6.9 mph - N/A   Mostly Cloudy
12:20 PM 53.6 °F - 48.2 °F 82% 29.56 in 6.2 mi SSE 6.9 mph - N/A   Mostly Cloudy
1:20 PM 55.4 °F - 48.2 °F 77% 29.53 in 6.2 mi SSE 6.9 mph - N/A   Mostly Cloudy
2:20 PM 57.2 °F - 48.2 °F 72% 29.53 in 6.2 mi SSE 8.1 mph - N/A   Mostly Cloudy
3:20 PM 55.4 °F - 50.0 °F 82% 29.53 in 6.2 mi ESE 5.8 mph - N/A Rain Light Rain
4:20 PM 53.6 °F - 50.0 °F 88% 29.50 in 6.2 mi SE 4.6 mph - N/A Rain Light Rain
4:49 PM 53.6 °F - 51.8 °F 94% 29.50 in 4.3 mi ESE 5.8 mph - N/A Rain Rain
5:20 PM 51.8 °F - 51.8 °F 100% 29.50 in 6.2 mi SE 4.6 mph - N/A Rain Light Rain
6:20 PM 51.8 °F - 51.8 °F 100% 29.50 in 6.2 mi SSE 4.6 mph - N/A   Mostly Cloudy
7:20 PM 51.8 °F - 51.8 °F 100% 29.50 in 6.2 mi SSE 6.9 mph - N/A   Mostly Cloudy
8:20 PM 50.0 °F - 50.0 °F 100% 29.53 in 6.2 mi SSE 6.9 mph - N/A   Mostly Cloudy
9:20 PM 51.8 °F - 50.0 °F 94% 29.53 in 6.2 mi SSE 5.8 mph - N/A   Mostly Cloudy
10:20 PM 51.8 °F - 48.2 °F 88% 29.53 in 6.2 mi South 8.1 mph - N/A   Mostly Cloudy
11:20 PM 51.8 °F - 46.4 °F 82% 29.53 in 6.2 mi SSE 8.1 mph - N/A   Mostly Cloudy